Regional Weather Roundup
Issued by NWS Mobile, AL

Home | Current Version | Previous Version | Text Only | Print | Product List | Glossary On
Versions: 1 2 3 4 5 6 7 8 9 10 11 12 13 14 15 16 17 18 19 20 21 22 23 24 25 26 27 28
000
ASUS44 KMOB 260712
RWRMOB
REGIONAL WEATHER ROUNDUP
NATIONAL WEATHER SERVICE MOBILE AL
200 AM CDT THU MAY 26 2016

NOTE: "FAIR" INDICATES FEW OR NO CLOUDS BELOW 12,000 FEET WITH NO
      SIGNIFICANT WEATHER AND/OR OBSTRUCTIONS TO VISIBILITY.

  * THESE STATIONS ARE PART OF THE UNIVERSITY OF SOUTH ALABAMA
    MESONET AND ARE NOT UNDER NWS OR FAA QUALITY CONTROL.

ALZ061>064-260800-
COASTAL ALABAMA

CITY           SKY/WX    TMP DP  RH WIND       PRES   REMARKS
MOBILE REG APT PTCLDY    66  66 100 CALM      30.10F
BROOKLEY FIELD PTCLDY    75  68  78 S7        30.11F
USA CAMPUS*    NOT AVBL
DOG RIVER*     NOT AVBL


CITY           SKY/WX    TMP DP  RH WIND       PRES   REMARKS
MOUNT VERNON*  NOT AVBL
SARALAND*      NOT AVBL
BAY MINETTE*   NOT AVBL
LOXLEY*        NOT AVBL
ROBERTSDALE*   NOT AVBL
FAIRHOPE*      NOT AVBL
ELBERTA*       NOT AVBL
FOLEY*         NOT AVBL
GRAND BAY*     NOT AVBL
DAUPHIN ISLND* NOT AVBL
BON SCOUR NWR* NOT AVBL
GULF SHORES    CLEAR     67  67 100 E10       30.10F

$$

ALZ051>060-260800-
INTERIOR SOUTHWEST AND SOUTH CENTRAL ALABAMA

CITY           SKY/WX    TMP DP  RH WIND       PRES   REMARKS
GREENVILLE     MOCLDY    67  63  87 CALM      30.12F
EVERGREEN      MOCLDY    69  64  84 CALM      30.12F
CASTLEBERRY*   NOT AVBL
ATMORE*        NOT AVBL
DIXIE*         NOT AVBL
ANDALUSIA/OPP  MOCLDY    71  65  81 CALM      30.13S
ANDALUSIA*     NOT AVBL
FLORALA APT    MOCLDY    69  68  96 CALM      30.14F
FLORALA*       NOT AVBL

$$

FLZ001>006-260800-
WESTERN FLORIDA PANHANDLE

CITY           SKY/WX    TMP DP  RH WIND       PRES   REMARKS
PENSACOLA      CLOUDY    73  68  84 S8        30.10F
NAS PENSACOLA  NOT AVBL
MILTON         MOCLDY    68  68 100 SE5       30.11F FOG
WHTNG S FIELD  MOCLDY    72  69  90 SE5       30.11F


CITY           SKY/WX    TMP DP  RH WIND       PRES   REMARKS
WALNUT HILL*   NOT AVBL
JAY*           NOT AVBL
DUKE FIELD     CLOUDY    66  65  94 SE2       30.11F
CRESTVIEW      CLOUDY    66  64  93 CALM      30.13F FOG
VALPARAISO     PTCLDY    75  71  86 SE6       30.11F
DESTIN         CLOUDY    78  73  84 SE6       30.11F

$$

MSZ076-079-260800-
INTERIOR SOUTHEAST MISSISSIPPI

CITY           SKY/WX    TMP DP  RH WIND       PRES   REMARKS
LEAKESVILLE*   NOT AVBL
AGRICOLA*      NOT AVBL

$$

MARINE OBSERVATIONS

STATION/POSITION TIME  TEMP    WIND        PRES    WAVE
                       AIR SEA DIR/SP/G            HT/PER
                 (UTC) (F)     (DEG/KT/KT) (MB)    (FT/S)
PASCAGOULA       0600   77     160/ 11/ 13 1019.1F
PETIT BOIS ISLND 0600   76     160/  9/ 12 1020.1F
GRAND BAY        0500   77     160/  9     1022.0F
KATRINA CUT      0600   76     160/ 10     1020.3F
CEDAR POINT      0630   75     160/ 10     1019.3F
E DAUPHIN ISLAND 0700   76     150/ 11/ 12 1018.8F
MIDDLE BAY LIGHT 0600   76     160/ 12     1019.6F
USCG MOBILE BAY  0600   75 80  150/  5/  9 1020.2F
STATE DOCKS      0600   75 80              1019.8F
MEAHER PARK      0600   72     120/  4     1019.6F
WEEKS BAY        0500   67                   N/A
FORT MORGAN      0600   76     170/ 11/ 12 1019.2F
12 S ORANGE BCH  0650   76 80  150/ 10/ 12 1018.7F   1/ 5
PENSACOLA BAY    0600      81  170/  6/  9 1020.0F
64 S DAUPHIN ISL 0600   77 78  130/  8/  8 1019.6F

$$

SELECTED LOCATIONS ACROSS THE REGION

CITY           SKY/WX    TMP DP  RH WIND       PRES   REMARKS
NEW ORLEANS    PTCLDY    76  71  85 SE8       30.07F
GULFPORT       CLOUDY    77  68  73 S6        30.07F
PASCAGOULA AP  MOCLDY    64  64 100 CALM      30.09F
PASCAGOULA*    NOT AVBL
HATTIESBURG    CLOUDY    73  66  78 CALM      30.11R
LAUREL         CLOUDY    70  64  83 CALM      30.13S
MERIDIAN       CLOUDY    73  65  75 S7        30.10F
JACKSON        CLOUDY    75  70  84 S8        30.09F
MONTGOMERY     CLEAR     69  63  81 CALM      30.12F
TROY           CLEAR     67  65  93 CALM      30.14F
KINSTON*       NOT AVBL
GENEVA*        NOT AVBL
ASHFORD*       NOT AVBL
DOTHAN         PTCLDY    71  68  90 CALM      30.16F
PANAMA CITY    FOG       66  65  96 CALM      30.12S VSB 3/4

$$





USA.gov is the U.S. government's official web portal to all federal, state and local government web resources and services.